[[{"header":{"parameterUnit":"m.s-1","parameterCategory":1,"la1":30.2991,"la2":30.254,"lo1":-89.0895,"lo2":-89.0444,"dy":0.0017,"dx":0.0017,"nx":28,"ny":28,"refTime":"2024-12-06T09:00:00:Z","depth":0,"parameterNumber":2,"parameterNumberName":"U-component_of_WINDS"},"data":[0,0,0,0,0,0,0,0,0,0,0,0,0,0,0,0,0,0,0,0,0,0,0,0,0,0,0,0,0,0,0,0,0,0,0,0,0,0,0,0,0,0,0,0,0,0,0,0,0,0,0,0,0,0,0,0,0,0,-4.0768,-4.0769,0,-4.0831,-4.0831,-4.0832,-4.0689,-4.0684,-4.068,-4.0676,-4.0742,-4.0748,-4.0754,0,0,0,0,0,0,0,0,0,0,0,0,0,-4.0527,-4.0532,-4.0768,-4.0769,-4.077,-4.0831,-4.0831,-4.0832,-4.069,-4.0684,-4.0679,-4.0673,-4.074,-4.0747,-4.0754,0,0,0,0,0,0,0,0,0,0,0,0,0,-4.0615,-4.0534,-4.0768,-4.0706,-4.0701,-4.083,-4.0831,-4.0832,-4.0691,-4.0684,-4.0677,-4.0671,-4.0737,-4.0746,-4.0755,-4.0948,0,0,-4.0783,-4.0787,0,0,0,0,0,0,0,0,-4.061,-4.0624,-4.0715,-4.0711,-4.0705,-4.0745,-4.077,-4.0871,-4.0693,-4.0695,-4.0675,-4.0668,-4.0749,-4.0756,-4.0783,-4.0951,-4.0954,-4.0784,-4.0789,-4.0793,-4.0795,0,0,0,0,0,0,0,-4.0604,-4.0621,-4.0793,-4.0716,-4.071,-4.0675,-4.068,-4.0789,-4.076,-4.0694,-4.0684,-4.0693,-4.0745,-4.0775,-4.0784,-4.0955,-4.0783,-4.0791,-4.0797,-4.08,-4.1284,-4.1291,0,0,0,0,0,0,-4.0606,-4.0617,-4.0791,-4.0795,-4.064,-4.0685,-4.0691,-4.0739,-4.0758,-4.0754,-4.0699,-4.0686,-4.0763,-4.0773,-4.0785,-4.1012,-4.0793,-4.0801,-4.0807,-4.1276,-4.1285,-4.1293,0,0,0,0,0,0,-4.0601,-4.0623,-4.0788,-4.0703,-4.0721,-4.0697,-4.0752,-4.0744,-4.0774,-4.0761,-4.0756,-4.0735,-4.0758,-4.0773,-4.0908,-4.1013,-4.0805,-4.0814,-4.1268,-4.1279,-4.1289,-4.1468,0,0,0,0,0,0,-4.0595,-4.0622,-4.0695,-4.0706,-4.0726,-4.0911,-4.0759,-4.075,-4.079,-4.0774,-4.0794,-4.0791,-4.0753,-4.0896,-4.0917,-4.1021,-4.0821,-4.1258,-4.1273,-4.1286,-4.1453,-4.1484,-4.1511,0,0,0,0,0,-4.0587,-4.0744,-4.07,-4.0722,-4.0817,-4.0917,-4.0929,-4.0883,-4.0799,-4.0872,-4.0864,-4.079,-4.0997,-4.0911,-4.0934,-4.1042,-4.1251,-4.1269,-4.1285,-4.144,-4.1478,-4.151,0,0,0,0,0,0,-4.0748,-4.0744,-4.0695,-4.086,-4.089,-4.0893,-4.0984,-4.0924,-4.0979,-4.0962,-4.0903,-4.0908,-4.1056,-4.1062,-4.0966,-4.123,-4.111,-4.1132,-4.122,-4.1256,-4.1285,-4.1281,-4.0828,0,0,0,0,0,-4.0802,-4.0883,-4.0876,-4.1022,-4.1039,-4.101,-4.1051,-4.1012,-4.1041,-4.1054,-4.1055,-4.1087,-4.1158,-4.1207,-4.1273,-4.1453,-4.1455,-4.1538,-4.1567,-4.1591,-4.1612,-4.1707,-4.1744,-4.1348,-4.1348,-4.1348,0,0,-4.0916,-4.0924,-4.0979,-4.1054,-4.1073,-4.1158,-4.1021,-4.1118,-4.1181,-4.1068,-4.1197,-4.1199,-4.123,-4.1388,-4.1458,-4.1398,-4.1721,-4.1612,-4.1632,-4.1639,-4.1728,-4.1765,-4.1798,-4.136,-4.1358,-4.1356,0,0,-4.1167,-4.1181,-4.1304,-4.1325,-4.1354,-4.1333,-4.1363,-4.1375,-4.1372,-4.1499,-4.1416,-4.149,-4.1616,-4.1641,-4.167,-4.1929,-4.1864,-4.1952,-4.2104,-4.2198,-4.2229,-4.2256,-4.2349,-4.2383,-4.1972,-4.1973,-4.1973,0,-4.1305,-4.143,-4.1375,-4.1477,-4.1513,-4.1413,-4.1538,-4.1561,-4.1611,-4.1638,-4.157,-4.1724,-4.1738,-4.1901,-4.1964,-4.1991,-4.2023,-4.1951,-4.2228,-4.2255,-4.228,-4.2368,-4.2403,-4.1983,-4.1982,-4.1981,-4.198,0,-4.1598,-4.1686,-4.1782,-4.1832,-4.1878,-4.1991,-4.1953,-4.2006,-4.1963,-4.1949,-4.208,-4.2093,-4.2159,-4.2194,-4.2154,-4.2352,-4.2314,-4.2238,-4.2117,-4.2329,-4.2411,-4.2444,-4.1999,-4.1995,-4.1992,-4.1989,0,0,-4.1954,-4.197,-4.2007,-4.2027,-4.2052,-4.2119,-4.2227,-4.2291,-4.2338,-4.2375,-4.2464,-4.2572,-4.2502,-4.2535,-4.2496,-4.2578,-4.2782,-4.2492,-4.2492,-4.2546,-4.3001,-4.3059,-4.3099,-4.2738,-4.2744,-4.2749,-4.2999,0,-4.2202,-4.2387,-4.234,-4.2525,-4.2605,-4.2511,-4.2605,-4.263,-4.262,-4.2687,-4.2675,-4.2753,-4.2654,-4.2673,-4.275,-4.2742,-4.2873,-4.2723,-4.2822,-4.2826,-4.2818,-4.3141,-4.3203,-4.3438,-4.303,-4.3036,-4.304,0,-4.2517,-4.2566,-4.2758,-4.2768,-4.28,-4.2886,-4.294,-4.3005,-4.3031,-4.3018,-4.3055,-4.2999,-4.3105,-4.2983,-4.3129,-4.3027,-4.3064,-4.3066,-4.3074,-4.3083,-4.2947,-4.3159,-4.3512,-4.3548,-4.3089,-4.3085,-4.3082,0,-4.2759,-4.2872,-4.3001,-4.3022,-4.3037,-4.3099,-4.3108,-4.3127,-4.3169,-4.3216,-4.3242,-4.3301,-4.3335,-4.3382,-4.3344,-4.3258,-4.3496,-4.337,-4.3489,-4.349,-4.3544,-4.3542,-4.3909,-4.3568,-4.3567,-4.3566,-4.3566,0,-4.3042,-4.3163,-4.3109,-4.3189,-4.3322,-4.3266,-4.34,-4.3398,-4.3416,-4.3494,-4.3416,-4.3491,-4.3435,-4.3505,-4.3476,-4.3602,-4.3617,-4.3609,-4.3601,-4.3617,-4.3618,-4.3642,-4.3625,-4.3576,-4.3573,-4.3572,-4.357,0,-4.3334,-4.3303,-4.3438,-4.344,-4.3443,-4.3542,-4.3544,-4.3618,-4.36,-4.37,-4.372,-4.3694,-4.3772,-4.3738,-4.3821,-4.3801,-4.3963,-4.3932,-4.3954,-4.3946,-4.4067,-4.4057,-4.4463,-4.4513,-4.4139,-4.4143,-4.4146,0,-4.3517,-4.3608,-4.362,-4.3666,-4.3681,-4.3756,-4.3797,-4.3746,-4.3792,-4.3828,-4.3898,-4.3969,-4.4023,-4.4153,-4.4142,-4.4204,-4.4175,-4.4312,-4.4184,-4.4197,-4.4177,-4.4173,-4.4182,-4.4339,-4.4343,-4.4347,-4.435,0,-4.3846,-4.3826,-4.3888,-4.3945,-4.3995,-4.4038,-4.4073,-4.4116,-4.4065,-4.4121,-4.4199,-4.4242,-4.4325,-4.4397,-4.4452,-4.4461,-4.4399,-4.439,-4.4421,-4.444,-4.4449,-4.4446,-4.4026,-4.4381,-4.4378,-4.4376,-4.4374,-4.4373,-4.409,-4.4166,-4.4186,-4.4258,-4.4278,-4.4313,-4.4383,-4.4374,-4.4438,-4.4502,-4.4467,-4.4559,-4.4582,-4.4649,-4.4667,-4.4738,-4.4684,-4.4729,-4.474,-4.4752,-4.4768,-4.4437,-4.4748,-4.4747,-4.4746,-4.4745,-4.4744,0,-4.4415,-4.4423,-4.4489,-4.4541,-4.4597,-4.453,-4.4566,-4.4618,-4.4699,-4.4725,-4.478,-4.487,-4.4939,-4.4933,-4.4996,-4.5054,-4.5027,-4.5073,-4.5068,-4.5071,-4.4813,-4.478,-4.5094,-4.5094,-4.5094,-4.5093,-4.5093,-4.5093,-4.4591,-4.4716,-4.4698,-4.4833,-4.484,-4.4929,-4.4955,-4.4986,-4.5007,-4.5111,-4.5167,-4.5162,-4.5175,-4.5238,-4.5299,-4.5295,-4.5322,-4.5379,-4.5365,-4.5124,-4.509,-4.5057,-4.5026,-4.5386,-4.5386,-4.5618,-4.562,-4.5621]},{"header":{"parameterUnit":"m.s-1","parameterCategory":1,"la1":30.2991,"la2":30.254,"lo1":-89.0895,"lo2":-89.0444,"dy":0.0017,"dx":0.0017,"nx":28,"ny":28,"refTime":"2024-12-06T09:00:00:Z","depth":0,"parameterNumber":3,"parameterNumberName":"V-component_of_WINDS"},"data":[0,0,0,0,0,0,0,0,0,0,0,0,0,0,0,0,0,0,0,0,0,0,0,0,0,0,0,0,0,0,0,0,0,0,0,0,0,0,0,0,0,0,0,0,0,0,0,0,0,0,0,0,0,0,0,0,0,0,-4.1762,-4.1762,0,-4.1799,-4.18,-4.18,-4.1753,-4.1751,-4.1749,-4.1748,-4.1784,-4.1787,-4.1789,0,0,0,0,0,0,0,0,0,0,0,0,0,-4.1644,-4.1646,-4.1761,-4.1762,-4.1762,-4.1799,-4.18,-4.18,-4.1753,-4.1751,-4.1749,-4.1747,-4.1783,-4.1786,-4.1789,0,0,0,0,0,0,0,0,0,0,0,0,0,-4.169,-4.1647,-4.1761,-4.1743,-4.1742,-4.1799,-4.18,-4.1801,-4.1753,-4.1751,-4.1748,-4.1746,-4.1782,-4.1786,-4.179,-4.1866,0,0,-4.1802,-4.1803,0,0,0,0,0,0,0,0,-4.1687,-4.1694,-4.1745,-4.1745,-4.1743,-4.1769,-4.1772,-4.1822,-4.1754,-4.1749,-4.1748,-4.1745,-4.1781,-4.1785,-4.1797,-4.1868,-4.1869,-4.1802,-4.1804,-4.1806,-4.1807,0,0,0,0,0,0,0,-4.1684,-4.1692,-4.1776,-4.1746,-4.1745,-4.1732,-4.1736,-4.1781,-4.1779,-4.1749,-4.1746,-4.1751,-4.178,-4.1794,-4.1798,-4.187,-4.1802,-4.1805,-4.1808,-4.1809,-4.2001,-4.2004,0,0,0,0,0,0,-4.1684,-4.169,-4.1775,-4.1778,-4.1708,-4.1736,-4.174,-4.1763,-4.1778,-4.1778,-4.1753,-4.1749,-4.1788,-4.1793,-4.1799,-4.1887,-4.1806,-4.181,-4.1812,-4.1998,-4.2002,-4.2005,0,0,0,0,0,0,-4.1681,-4.1692,-4.1774,-4.1733,-4.1742,-4.1741,-4.1767,-4.1765,-4.1779,-4.1782,-4.1781,-4.1768,-4.1787,-4.1794,-4.1849,-4.1888,-4.1811,-4.1815,-4.1995,-4.1999,-4.2003,-4.2065,0,0,0,0,0,0,-4.1678,-4.1691,-4.1721,-4.1734,-4.1745,-4.1825,-4.177,-4.1768,-4.1786,-4.1781,-4.1795,-4.1795,-4.1785,-4.1844,-4.1853,-4.1892,-4.1818,-4.1992,-4.1997,-4.2002,-4.206,-4.2071,-4.2081,0,0,0,0,0,-4.1674,-4.1737,-4.1723,-4.1733,-4.1782,-4.1827,-4.1833,-4.1821,-4.179,-4.1819,-4.182,-4.1795,-4.1882,-4.185,-4.186,-4.19,-4.1989,-4.1995,-4.2001,-4.2055,-4.2069,-4.208,0,0,0,0,0,0,-4.1729,-4.1739,-4.1723,-4.1792,-4.1809,-4.1819,-4.1855,-4.1836,-4.1861,-4.1855,-4.1838,-4.1842,-4.19,-4.1906,-4.187,-4.1973,-4.193,-4.1939,-4.1968,-4.1981,-4.1991,-4.1988,-4.1821,0,0,0,0,0,-4.1749,-4.1785,-4.1792,-4.1852,-4.1861,-4.1857,-4.1876,-4.1865,-4.1881,-4.1888,-4.1893,-4.1909,-4.194,-4.1961,-4.199,-4.206,-4.2062,-4.2093,-4.2104,-4.2112,-4.2119,-4.2155,-4.2168,-4.2025,-4.2025,-4.2025,0,0,-4.1791,-4.1801,-4.1825,-4.1863,-4.1875,-4.1911,-4.1863,-4.1905,-4.1931,-4.1894,-4.1946,-4.1951,-4.1967,-4.203,-4.2058,-4.2037,-4.2159,-4.212,-4.2127,-4.2129,-4.2163,-4.2176,-4.2188,-4.2029,-4.2029,-4.2028,0,0,-4.1885,-4.1898,-4.1948,-4.1961,-4.1979,-4.1975,-4.1988,-4.2,-4.2001,-4.2054,-4.2026,-4.2057,-4.2111,-4.2123,-4.2137,-4.2234,-4.2211,-4.2244,-4.2298,-4.2333,-4.2344,-4.2354,-4.2386,-4.2399,-4.2251,-4.2251,-4.2252,0,-4.1935,-4.199,-4.1976,-4.2019,-4.2036,-4.2004,-4.2054,-4.2067,-4.2093,-4.2105,-4.2081,-4.2146,-4.2156,-4.222,-4.2243,-4.2256,-4.2268,-4.2242,-4.2344,-4.2353,-4.2362,-4.2393,-4.2406,-4.2255,-4.2255,-4.2254,-4.2254,0,-4.2048,-4.2087,-4.2125,-4.2152,-4.2173,-4.2219,-4.2211,-4.2234,-4.222,-4.2219,-4.2271,-4.2281,-4.231,-4.2325,-4.2313,-4.2387,-4.2373,-4.2347,-4.2303,-4.238,-4.2409,-4.242,-4.226,-4.2259,-4.2258,-4.2257,0,0,-4.2179,-4.2196,-4.221,-4.2221,-4.2238,-4.2267,-4.231,-4.2339,-4.2358,-4.2377,-4.2412,-4.2458,-4.2433,-4.2448,-4.2437,-4.2468,-4.2541,-4.2437,-4.2437,-4.2455,-4.2621,-4.2639,-4.2653,-4.2526,-4.2529,-4.2531,-4.2619,0,-4.2272,-4.2348,-4.2336,-4.2409,-4.2443,-4.2413,-4.2451,-4.2465,-4.2464,-4.2492,-4.2491,-4.2522,-4.2489,-4.2497,-4.2526,-4.2526,-4.2574,-4.252,-4.2557,-4.2558,-4.2552,-4.2669,-4.2689,-4.2771,-4.263,-4.2632,-4.2633,0,-4.2391,-4.2414,-4.249,-4.25,-4.2514,-4.2548,-4.2572,-4.26,-4.2614,-4.2611,-4.2627,-4.261,-4.2651,-4.2608,-4.2664,-4.2627,-4.2642,-4.2644,-4.2647,-4.2648,-4.26,-4.2672,-4.2798,-4.281,-4.2651,-4.265,-4.2649,0,-4.2476,-4.2526,-4.2577,-4.2588,-4.2601,-4.2625,-4.2632,-4.2643,-4.2661,-4.2681,-4.2692,-4.2718,-4.2731,-4.2751,-4.274,-4.271,-4.2797,-4.2753,-4.2794,-4.2795,-4.2813,-4.2812,-4.2942,-4.2826,-4.2825,-4.2825,-4.2825,0,-4.258,-4.2627,-4.2615,-4.2647,-4.2698,-4.2684,-4.2734,-4.2737,-4.2748,-4.2778,-4.2754,-4.2782,-4.2767,-4.2794,-4.2786,-4.2833,-4.284,-4.2837,-4.2834,-4.2838,-4.2838,-4.2846,-4.284,-4.2828,-4.2828,-4.2827,-4.2827,0,-4.2683,-4.2677,-4.2731,-4.2739,-4.2741,-4.2779,-4.2785,-4.2813,-4.2811,-4.2849,-4.2857,-4.2853,-4.2883,-4.2875,-4.2908,-4.2902,-4.2961,-4.2951,-4.2956,-4.2953,-4.2994,-4.2989,-4.3132,-4.3149,-4.3024,-4.3025,-4.3026,0,-4.2749,-4.2784,-4.2796,-4.2814,-4.2823,-4.2853,-4.287,-4.2857,-4.2876,-4.2893,-4.2919,-4.2948,-4.297,-4.302,-4.3019,-4.3044,-4.3033,-4.3082,-4.3037,-4.3039,-4.3031,-4.3029,-4.3031,-4.309,-4.3091,-4.3093,-4.3094,0,-4.2866,-4.2861,-4.2887,-4.2912,-4.2933,-4.2952,-4.2968,-4.2984,-4.2972,-4.2994,-4.3025,-4.3042,-4.3075,-4.3103,-4.3125,-4.313,-4.3109,-4.3108,-4.3118,-4.3122,-4.3123,-4.3121,-4.2978,-4.3104,-4.3103,-4.3102,-4.3102,-4.3101,-4.2951,-4.298,-4.2992,-4.3021,-4.3032,-4.3048,-4.3074,-4.3074,-4.31,-4.3126,-4.3117,-4.3152,-4.3163,-4.3191,-4.3199,-4.3225,-4.3206,-4.3222,-4.3226,-4.3229,-4.3233,-4.312,-4.3229,-4.3229,-4.3229,-4.3228,-4.3228,0,-4.3065,-4.3071,-4.3098,-4.3121,-4.3144,-4.3123,-4.3139,-4.3159,-4.319,-4.3203,-4.3224,-4.3259,-4.3285,-4.3286,-4.331,-4.3331,-4.3322,-4.3338,-4.3335,-4.3336,-4.325,-4.3237,-4.3345,-4.3345,-4.3345,-4.3345,-4.3345,-4.3345,-4.3127,-4.3174,-4.317,-4.3222,-4.3228,-4.3262,-4.3273,-4.3286,-4.3296,-4.3335,-4.3357,-4.3358,-4.3365,-4.3389,-4.3412,-4.3411,-4.342,-4.344,-4.3435,-4.3354,-4.3343,-4.3332,-4.332,-4.3442,-4.3443,-4.3519,-4.352,-4.352]}]]